{"data":{"norad_id":58371,"intl_designator":"2023-177W","name":"STARLINK-30859","alt_names":[],"object_type":"PAYLOAD","status":"ACTIVE","operator":null,"country":"US","launch_date":"2023-11-18","launch_site_code":"AFETR","launch_vehicle":null,"mission":null,"orbit_class":"UNKNOWN","rcs_meters":null,"size_class":null,"mass_kg":null,"dimensions":null,"purposes":["comms"],"wikipedia_slug":null,"has_3d_model":false,"image_url":null,"decayed_at":null,"tle_current":{"epoch":"2026-05-25T01:32:27.629088Z","epoch_age_seconds":69215,"freshness":"FRESH","line1":"1 58371U 23177W   26145.06420867  .00003687  00000+0  14346-3 0  9999","line2":"2 58371  42.9977 279.6135 0000672 339.3147  20.7677 15.27574655139911","mean_motion":15.27574655,"eccentricity":6.72e-5,"inclination_deg":42.9977,"raan_deg":279.6135,"arg_perigee_deg":339.3147,"mean_anomaly_deg":20.7677,"bstar":0.00014346,"rev_number":13991,"period_min":94.26707855401,"perigee_km":482.60402815799,"apogee_km":483.52617372036,"semimajor_km":6861.2021009392,"source":"CELESTRAK","updated_at":"2026-05-25T13:38:18.610750Z"}}}